This is the latest recevied weather packets stored in our database for station/object WA1TYB-13. If no packets are shown the sender has not sent any weather packets the latest 10 day(s).
| Time | Temp. | Humidity | Pressure | Rain* | Wind** | Luminosity | Snow |
|---|---|---|---|---|---|---|---|
| 1788617297 | 11.67° C | 76% | 1021.5 hPa | 0 mm | - | 29 W/m² | - |
| 1788616988 | 11.67° C | 76% | 1021.7 hPa | 0 mm | - | 25 W/m² | - |
| 1788616687 | 11.67° C | 76% | 1021.4 hPa | 0 mm | - | 30 W/m² | - |
| 1788616383 | 11.67° C | 76% | 1021.7 hPa | 0 mm | - | 25 W/m² | - |
| 1788616083 | 11.67° C | 75% | 1021.4 hPa | 0 mm | - | 26 W/m² | - |
| 1788615777 | 11.67° C | 75% | 1021.3 hPa | 0 mm | - | 24 W/m² | - |
| 1788615477 | 11.67° C | 76% | 1021.2 hPa | 0 mm | - | 31 W/m² | - |
| 1788615173 | 11.67° C | 77% | 1021.1 hPa | 0 mm | - | 45 W/m² | - |
| 1788614872 | 11.67° C | 77% | 1021.3 hPa | 0 mm | - | 28 W/m² | - |
| 1788614567 | 11.67° C | 77% | 1020.8 hPa | 0 mm | - | 14 W/m² | - |
| 1788614262 | 11.67° C | 77% | 1021.1 hPa | 0 mm | - | 10 W/m² | - |
| 1788613957 | 11.67° C | 76% | 1020.7 hPa | 0 mm | - | 10 W/m² | - |
| 1788613652 | 11.67° C | 77% | 1020.8 hPa | 0 mm | - | 7 W/m² | - |
| 1788613351 | 11.67° C | 77% | 1020.7 hPa | 0 mm | - | 2 W/m² | - |
| 1788613047 | 11.67° C | 77% | 1020.8 hPa | 0 mm | - | 2 W/m² | - |
| 1788612741 | 11.67° C | 76% | 1020.5 hPa | 0 mm | - | 0 W/m² | - |
| 1788612438 | 11.67° C | 77% | 1020.7 hPa | 0 mm | - | 0 W/m² | - |
| 1788612134 | 11.67° C | 76% | 1020.7 hPa | 0 mm | - | 0 W/m² | - |
| 1788611828 | 11.67° C | 77% | 1020.6 hPa | 0 mm | - | 0 W/m² | - |
| 1788611526 | 11.67° C | 76% | 1020.4 hPa | 0 mm | - | 0 W/m² | - |
| 1788611225 | 11.67° C | 76% | 1020.4 hPa | 0 mm | - | 0 W/m² | - |
| 1788610920 | 11.67° C | 77% | 1020.8 hPa | 0 mm | - | 0 W/m² | - |
| 1788610614 | 11.67° C | 77% | 1020.4 hPa | 0 mm | - | 0 W/m² | - |
| 1788610310 | 11.67° C | 77% | 1019.7 hPa | 0 mm | - | 0 W/m² | - |
| 1788610009 | 11.67° C | 76% | 1020.2 hPa | 0 mm | - | 0 W/m² | - |
* Rain latest hour (hover to see other rain measurements)
** Current wind speed in m/s (hover to see current wind gust speed)